N5172C EDDG-EDLW

Flight info

Callsign N5172C
Flight time 0h 23m
Altitude
Route
Aircraft BT36

Departure

Time 2026-05-05 19:03
Airport Münster Osnabrück Airport (EDDG)

Arrival

Time 2026-05-05 19:27
Airport Dortmund Airport (EDLW)
Time Latitude Longitude Altitude Speed Heading
2026-05-05 18:59 52.13161 7.68207 162 ft 2 kts 327°
2026-05-05 19:00 52.13182 7.68260 162 ft 11 kts 70°
2026-05-05 19:00 52.13218 7.68341 162 ft 7 kts 335°
2026-05-05 19:00 52.13267 7.68313 162 ft 8 kts 340°
2026-05-05 19:00 52.13320 7.68285 162 ft 3 kts 341°
2026-05-05 19:01 52.13325 7.68282 162 ft 0 kts 340°
2026-05-05 19:02 52.13326 7.68282 162 ft 2 kts 343°
2026-05-05 19:02 52.13372 7.68259 163 ft 8 kts 346°
2026-05-05 19:02 52.13418 7.68261 163 ft 0 kts 79°
2026-05-05 19:03 52.13442 7.68370 164 ft 43 kts 71°
2026-05-05 19:03 52.13599 7.69141 357 ft 86 kts 69°
2026-05-05 19:03 52.13793 7.70119 847 ft 94 kts 78°
2026-05-05 19:04 52.13393 7.70833 1147 ft 110 kts 181°
2026-05-05 19:04 52.12583 7.70654 1195 ft 125 kts 185°
2026-05-05 19:04 52.11724 7.70410 1272 ft 127 kts 186°
2026-05-05 19:04 52.10848 7.70113 1321 ft 129 kts 191°
2026-05-05 19:05 52.09963 7.69781 1312 ft 137 kts 186°
2026-05-05 19:05 52.09007 7.69532 1354 ft 136 kts 185°
2026-05-05 19:05 52.08096 7.69290 1488 ft 132 kts 182°
2026-05-05 19:05 52.07151 7.69179 1494 ft 140 kts 178°
2026-05-05 19:06 52.06163 7.69036 1501 ft 145 kts 183°
2026-05-05 19:06 52.05152 7.68745 1502 ft 150 kts 191°
2026-05-05 19:06 52.04153 7.68249 1502 ft 150 kts 193°
2026-05-05 19:06 52.03146 7.67754 1511 ft 152 kts 194°
2026-05-05 19:07 52.02118 7.67364 1488 ft 151 kts 180°
2026-05-05 19:07 52.01425 7.67285 1488 ft 151 kts 181°
2026-05-05 19:07 52.00384 7.67092 1488 ft 150 kts 182°
2026-05-05 19:07 51.99015 7.66813 1488 ft 150 kts 182°
2026-05-05 19:08 51.98313 7.66668 1487 ft 151 kts 181°
2026-05-05 19:08 51.96931 7.66373 1485 ft 152 kts 182°
2026-05-05 19:08 51.95888 7.66164 1483 ft 151 kts 181°
2026-05-05 19:08 51.95182 7.66018 1483 ft 152 kts 182°
2026-05-05 19:09 51.94129 7.65797 1485 ft 153 kts 182°
2026-05-05 19:09 51.93072 7.65582 1483 ft 154 kts 182°
2026-05-05 19:09 51.92006 7.65373 1482 ft 154 kts 182°
2026-05-05 19:09 51.90963 7.65164 1482 ft 153 kts 182°
2026-05-05 19:10 51.89893 7.64944 1480 ft 153 kts 182°
2026-05-05 19:10 51.88834 7.64746 1481 ft 154 kts 182°
2026-05-05 19:10 51.87768 7.64559 1480 ft 155 kts 182°
2026-05-05 19:10 51.86697 7.64357 1478 ft 155 kts 184°
2026-05-05 19:11 51.85623 7.64126 1477 ft 155 kts 183°
2026-05-05 19:11 51.84567 7.63909 1477 ft 155 kts 183°
2026-05-05 19:11 51.83499 7.63685 1496 ft 155 kts 184°
2026-05-05 19:11 51.82426 7.63461 1497 ft 156 kts 183°
2026-05-05 19:12 51.81343 7.63240 1500 ft 157 kts 183°
2026-05-05 19:12 51.80263 7.63020 1499 ft 156 kts 183°
2026-05-05 19:12 51.79183 7.62798 1506 ft 155 kts 183°
2026-05-05 19:12 51.78109 7.62607 1461 ft 157 kts 183°
2026-05-05 19:13 51.77000 7.62415 1320 ft 163 kts 184°
2026-05-05 19:13 51.75860 7.62238 1167 ft 164 kts 184°
2026-05-05 19:13 51.74755 7.62084 1009 ft 151 kts 183°
2026-05-05 19:13 51.73820 7.61939 981 ft 121 kts 184°
2026-05-05 19:14 51.73080 7.61759 936 ft 99 kts 196°
2026-05-05 19:14 51.72410 7.61458 955 ft 98 kts 192°
2026-05-05 19:14 51.71757 7.61152 987 ft 102 kts 194°
2026-05-05 19:14 51.71057 7.60857 996 ft 107 kts 192°
2026-05-05 19:15 51.70315 7.60507 1004 ft 114 kts 194°
2026-05-05 19:15 51.69529 7.60164 1013 ft 123 kts 194°
2026-05-05 19:15 51.68664 7.59700 999 ft 134 kts 203°
2026-05-05 19:15 51.67814 7.59044 1009 ft 137 kts 204°
2026-05-05 19:16 51.66938 7.58389 999 ft 140 kts 205°
2026-05-05 19:16 51.66047 7.57745 1002 ft 141 kts 204°
2026-05-05 19:16 51.65152 7.57112 1001 ft 138 kts 204°
2026-05-05 19:16 51.64285 7.56484 1003 ft 135 kts 204°
2026-05-05 19:17 51.63398 7.55947 993 ft 137 kts 198°
2026-05-05 19:17 51.62509 7.55481 994 ft 133 kts 199°
2026-05-05 19:17 51.61633 7.55098 981 ft 129 kts 191°
2026-05-05 19:17 51.60770 7.54819 985 ft 124 kts 188°
2026-05-05 19:18 51.59921 7.54665 982 ft 122 kts 186°
2026-05-05 19:18 51.59085 7.54493 983 ft 119 kts 186°
2026-05-05 19:18 51.58275 7.54321 986 ft 116 kts 186°
2026-05-05 19:18 51.57498 7.54176 979 ft 106 kts 187°
2026-05-05 19:19 51.56824 7.54139 935 ft 89 kts 186°
2026-05-05 19:19 51.56156 7.53992 986 ft 105 kts 186°
2026-05-05 19:19 51.55373 7.53884 1023 ft 122 kts 179°
2026-05-05 19:19 51.54510 7.53973 1077 ft 120 kts 174°
2026-05-05 19:20 51.53724 7.54118 1171 ft 110 kts 170°
2026-05-05 19:20 51.52963 7.54307 1156 ft 114 kts 175°
2026-05-05 19:20 51.52279 7.53789 1200 ft 110 kts 238°
2026-05-05 19:20 51.51877 7.52740 1202 ft 111 kts 242°
2026-05-05 19:21 51.51473 7.51706 1197 ft 109 kts 241°
2026-05-05 19:21 51.51073 7.50662 1231 ft 113 kts 240°
2026-05-05 19:21 51.50638 7.49574 1225 ft 118 kts 242°
2026-05-05 19:21 51.50209 7.48473 1188 ft 115 kts 247°
2026-05-05 19:22 51.50124 7.47312 1261 ft 104 kts 290°
2026-05-05 19:22 51.50570 7.46484 1322 ft 98 kts 341°
2026-05-05 19:22 51.51238 7.46492 1337 ft 100 kts 24°
2026-05-05 19:22 51.51697 7.47288 1420 ft 102 kts 71°
2026-05-05 19:23 51.51551 7.48400 1453 ft 114 kts 127°
2026-05-05 19:23 51.50850 7.49038 1440 ft 122 kts 153°
2026-05-05 19:23 51.50055 7.49595 1475 ft 127 kts 153°
2026-05-05 19:23 51.49235 7.50184 1431 ft 132 kts 151°
2026-05-05 19:24 51.48548 7.51028 1535 ft 116 kts 113°
2026-05-05 19:24 51.48575 7.52201 1547 ft 107 kts 57°
2026-05-05 19:24 51.49010 7.53201 1469 ft 112 kts 53°
2026-05-05 19:24 51.49415 7.54256 1412 ft 110 kts 58°
2026-05-05 19:25 51.49776 7.55335 1333 ft 108 kts 58°
2026-05-05 19:25 51.50153 7.56364 1212 ft 106 kts 58°
2026-05-05 19:25 51.50491 7.57384 1077 ft 96 kts 56°
2026-05-05 19:25 51.50776 7.58195 874 ft 78 kts 56°
2026-05-05 19:26 51.51039 7.58944 690 ft 80 kts 57°
2026-05-05 19:26 51.51321 7.59746 590 ft 83 kts 60°
2026-05-05 19:26 51.51604 7.60554 472 ft 83 kts 57°
2026-05-05 19:26 51.51853 7.61279 413 ft 59 kts 57°
2026-05-05 19:27 51.52020 7.61757 411 ft 42 kts 62°
2026-05-05 19:27 51.52121 7.62052 413 ft 25 kts 58°
2026-05-05 19:27 51.52188 7.62291 413 ft 20 kts 121°
2026-05-05 19:27 51.52126 7.62367 412 ft 7 kts 149°
2026-05-05 19:28 51.52103 7.62390 411 ft 0 kts 155°
2026-05-05 19:28 51.52095 7.62395 411 ft 6 kts 156°
2026-05-05 19:28 51.52037 7.62340 410 ft 15 kts 238°
2026-05-05 19:29 51.51977 7.62177 412 ft 20 kts 239°
2026-05-05 19:29 51.51898 7.61954 412 ft 26 kts 240°
2026-05-05 19:29 51.51803 7.61684 418 ft 27 kts 237°
2026-05-05 19:29 51.51715 7.61433 424 ft 24 kts 241°
2026-05-05 19:30 51.51638 7.61212 427 ft 21 kts 245°
2026-05-05 19:30 51.51577 7.61056 427 ft 15 kts 207°
2026-05-05 19:30 51.51498 7.61016 425 ft 12 kts 239°
2026-05-05 19:30 51.51447 7.60878 425 ft 18 kts 241°
2026-05-05 19:31 51.51371 7.60665 430 ft 25 kts 240°
2026-05-05 19:31 51.51284 7.60410 438 ft 27 kts 242°
2026-05-05 19:31 51.51209 7.60202 433 ft 13 kts 242°
2026-05-05 19:31 51.51160 7.60225 442 ft 14 kts 49°
2026-05-05 19:32 51.51219 7.60364 443 ft 14 kts 59°
2026-05-05 19:32 51.51226 7.60424 438 ft 7 kts 105°
2026-05-05 19:32 51.51219 7.60462 437 ft 3 kts 106°
2026-05-05 19:32 51.51217 7.60473 440 ft 0 kts 105°